• In Hungary
  • List of Countries
  • For 7 days
  • Water Temperature
  • Satellite Maps
  • Weather Map
  • News
  • Weather Widgets
  • user-avatar
    Login

    Hourly Weather Poronin

    Today, 18 December, Monday

    Time Temperature Precipitation Wind Pressure Humidity
    00:00 -3°C° 0 mm 1 mps 699 mmHg 91%
    01:00 -4°C° 0 mm 1 mps 699 mmHg 93%
    02:00 -4°C° 0 mm 1 mps 699 mmHg 93%
    03:00 -4°C° 0 mm 1 mps 699 mmHg 93%
    04:00 -4°C° 0 mm 1 mps 699 mmHg 93%
    05:00 -4°C° 0 mm 1 mps 699 mmHg 93%
    06:00 -4°C° 0 mm 1 mps 699 mmHg 93%
    07:00 -3°C° 0 mm 1 mps 699 mmHg 92%
    08:00 -3°C° 0 mm 1 mps 700 mmHg 88%
    09:00 -4°C° 0 mm 2 mps 700 mmHg 85%
    10:00 -4°C° 0 mm 2 mps 701 mmHg 81%
    11:00 -3°C° 0 mm 2 mps 701 mmHg 78%
    12:00 -3°C° 0 mm 2 mps 701 mmHg 74%
    13:00 -3°C° 0 mm 2 mps 701 mmHg 71%
    14:00 -4°C° 0 mm 2 mps 701 mmHg 75%
    15:00 -5°C° 0 mm 2 mps 701 mmHg 79%
    16:00 -3°C° 0 mm 1 mps 701 mmHg 84%
    17:00 -4°C° 0 mm 1 mps 701 mmHg 85%
    18:00 -4°C° 0 mm 1 mps 701 mmHg 86%
    19:00 -4°C° 0 mm 1 mps 702 mmHg 87%
    20:00 -4°C° 0 mm 1 mps 702 mmHg 88%
    21:00 -4°C° 0 mm 1 mps 702 mmHg 90%
    22:00 -6°C° 0 mm 1 mps 702 mmHg 91%
    23:00 -6°C° 0 mm 1 mps 702 mmHg 92%

    Tomorrow, 19 December, Tuesday

    Time Temperature Precipitation Wind Pressure Humidity
    00:00 -6°C° 0 mm 1 mps 703 mmHg 92%
    01:00 -6°C° 0 mm 1 mps 703 mmHg 92%
    02:00 -6°C° 0 mm 1 mps 703 mmHg 92%
    03:00 -6°C° 0 mm 1 mps 703 mmHg 91%
    04:00 -6°C° 0 mm 1 mps 703 mmHg 91%
    05:00 -6°C° 0 mm 1 mps 703 mmHg 90%
    06:00 -7°C° 0 mm 2 mps 704 mmHg 89%
    07:00 -7°C° 0 mm 2 mps 704 mmHg 88%
    08:00 -4°C° 0 mm 1 mps 704 mmHg 84%
    09:00 -4°C° 0 mm 1 mps 705 mmHg 80%
    10:00 -3°C° 0 mm 1 mps 705 mmHg 76%
    11:00 -3°C° 0 mm 1 mps 705 mmHg 73%
    12:00 -4°C° 0 mm 2 mps 705 mmHg 69%
    13:00 -4°C° 0 mm 2 mps 705 mmHg 66%
    14:00 -3°C° 0 mm 1 mps 705 mmHg 70%
    15:00 -3°C° 0 mm 1 mps 705 mmHg 75%
    16:00 -4°C° 0 mm 1 mps 705 mmHg 80%
    17:00 -4°C° 0 mm 1 mps 705 mmHg 81%
    18:00 -4°C° 0 mm 1 mps 705 mmHg 81%
    19:00 -4°C° 0 mm 1 mps 705 mmHg 82%
    20:00 -6°C° 0 mm 1 mps 705 mmHg 82%
    21:00 -6°C° 0 mm 1 mps 705 mmHg 83%
    22:00 -6°C° 0 mm 1 mps 705 mmHg 83%
    23:00 -6°C° 0 mm 1 mps 705 mmHg 84%

    Day after tomorrow, 20 December, Wednesday

    Time Temperature Precipitation Wind Pressure Humidity
    00:00 -7°C° 0 mm 1 mps 705 mmHg 84%
    01:00 -7°C° 0 mm 1 mps 705 mmHg 85%
    02:00 -7°C° 0 mm 1 mps 705 mmHg 85%
    03:00 -7°C° 0 mm 1 mps 704 mmHg 85%
    04:00 -7°C° 0 mm 1 mps 704 mmHg 85%
    05:00 -7°C° 0 mm 1 mps 704 mmHg 86%
    06:00 -7°C° 0 mm 1 mps 704 mmHg 86%
    07:00 -7°C° 0 mm 1 mps 704 mmHg 86%
    08:00 -6°C° 0 mm 1 mps 705 mmHg 82%
    09:00 -4°C° 0 mm 1 mps 705 mmHg 78%
    10:00 -3°C° 0 mm 1 mps 705 mmHg 74%
    11:00 -3°C° 0 mm 1 mps 705 mmHg 72%
    12:00 -2°C° 0 mm 1 mps 705 mmHg 70%
    13:00 -2°C° 0 mm 1 mps 705 mmHg 69%
    14:00 -2°C° 0.1 mm 1 mps 704 mmHg 74%
    15:00 -3°C° 0.1 mm 1 mps 704 mmHg 79%
    16:00 -3°C° 0.1 mm 1 mps 704 mmHg 85%
    17:00 -3°C° 0.1 mm 1 mps 704 mmHg 86%
    18:00 -3°C° 0.1 mm 1 mps 704 mmHg 87%
    19:00 -3°C° 0.1 mm 1 mps 704 mmHg 88%
    20:00 -4°C° 0.1 mm 1 mps 705 mmHg 89%
    21:00 -4°C° 0.1 mm 1 mps 705 mmHg 89%
    22:00 -4°C° 0.1 mm 1 mps 705 mmHg 90%
    23:00 -4°C° 0 mm 1 mps 705 mmHg 90%

    21 December, Thursday

    Time Temperature Precipitation Wind Pressure Humidity
    00:00 -4°C° 0 mm 1 mps 705 mmHg 91%
    01:00 -4°C° 0 mm 1 mps 705 mmHg 91%
    02:00 -4°C° 0 mm 1 mps 705 mmHg 91%
    03:00 -4°C° 0 mm 1 mps 704 mmHg 91%
    04:00 -6°C° 0 mm 1 mps 704 mmHg 92%
    05:00 -6°C° 0 mm 1 mps 704 mmHg 91%
    06:00 -6°C° 0 mm 1 mps 704 mmHg 91%
    07:00 -6°C° 0 mm 1 mps 704 mmHg 90%
    08:00 -4°C° 0 mm 1 mps 704 mmHg 86%
    09:00 -3°C° 0 mm 1 mps 704 mmHg 81%
    10:00 -2°C° 0 mm 1 mps 704 mmHg 76%
    11:00 -4°C° 0 mm 2 mps 704 mmHg 74%
    12:00 -3°C° 0 mm 2 mps 703 mmHg 72%
    13:00 -2°C° 0 mm 2 mps 703 mmHg 69%
    14:00 -3°C° 0 mm 2 mps 702 mmHg 73%
    15:00 -3°C° 0 mm 2 mps 702 mmHg 77%
    16:00 -4°C° 0 mm 2 mps 701 mmHg 81%
    17:00 -4°C° 0.4 mm 2 mps 701 mmHg 84%
    18:00 -4°C° 0.4 mm 2 mps 701 mmHg 86%
    19:00 -4°C° 0.4 mm 2 mps 701 mmHg 88%
    20:00 -3°C° 0.1 mm 2 mps 701 mmHg 89%
    21:00 -3°C° 0.1 mm 2 mps 701 mmHg 90%
    22:00 -3°C° 0.1 mm 2 mps 701 mmHg 91%
    23:00 -3°C° 0 mm 2 mps 701 mmHg 91%

    22 December, Friday

    Time Temperature Precipitation Wind Pressure Humidity
    00:00 -3°C° 0 mm 2 mps 701 mmHg 91%
    01:00 -3°C° 0 mm 2 mps 701 mmHg 91%
    02:00 -3°C° 0 mm 2 mps 701 mmHg 91%
    03:00 -3°C° 0 mm 2 mps 701 mmHg 91%
    04:00 -3°C° 0 mm 2 mps 701 mmHg 90%
    05:00 -4°C° 0.2 mm 3 mps 701 mmHg 91%
    06:00 -4°C° 0.2 mm 3 mps 701 mmHg 91%
    07:00 -2°C° 0.2 mm 3 mps 701 mmHg 91%
    08:00 -2°C° 0.2 mm 3 mps 701 mmHg 89%
    09:00 -2°C° 0.2 mm 3 mps 701 mmHg 88%
    10:00 -2°C° 0.2 mm 3 mps 701 mmHg 87%
    11:00 -1°C° 0.3 mm 3 mps 701 mmHg 86%
    12:00 -1°C° 0.3 mm 3 mps 700 mmHg 85%
    13:00 -1°C° 0.3 mm 3 mps 700 mmHg 85%
    14:00 -2°C° 0.6 mm 4 mps 700 mmHg 86%
    15:00 -3°C° 0.6 mm 4 mps 700 mmHg 88%
    16:00 -3°C° 0.6 mm 4 mps 700 mmHg 90%
    17:00 -4°C° 0.3 mm 4 mps 700 mmHg 90%
    18:00 -4°C° 0.3 mm 4 mps 701 mmHg 90%
    19:00 -4°C° 0.3 mm 4 mps 701 mmHg 90%
    20:00 -4°C° 0.2 mm 4 mps 701 mmHg 90%
    21:00 -4°C° 0.2 mm 4 mps 701 mmHg 90%
    22:00 -4°C° 0.2 mm 3 mps 701 mmHg 90%
    23:00 -4°C° 0.1 mm 3 mps 700 mmHg 90%

    23 December, Saturday

    Time Temperature Precipitation Wind Pressure Humidity
    00:00 -5°C° 0.1 mm 3 mps 700 mmHg 90%
    01:00 -5°C° 0.1 mm 3 mps 700 mmHg 90%
    02:00 -5°C° 0.1 mm 3 mps 699 mmHg 89%
    03:00 -5°C° 0.1 mm 3 mps 699 mmHg 89%
    04:00 -5°C° 0.1 mm 3 mps 698 mmHg 89%
    05:00 -5°C° 0.3 mm 3 mps 698 mmHg 89%
    06:00 -5°C° 0.3 mm 4 mps 697 mmHg 89%
    07:00 -5°C° 0.3 mm 4 mps 696 mmHg 89%
    08:00 -4°C° 0.8 mm 4 mps 696 mmHg 88%
    09:00 -5°C° 0.8 mm 5 mps 697 mmHg 86%
    10:00 -5°C° 0.8 mm 5 mps 697 mmHg 85%
    11:00 -5°C° 0.2 mm 6 mps 697 mmHg 84%
    12:00 -6°C° 0.2 mm 6 mps 697 mmHg 84%
    13:00 -6°C° 0.2 mm 6 mps 697 mmHg 83%
    14:00 -6°C° 0.3 mm 6 mps 698 mmHg 84%
    15:00 -7°C° 0.3 mm 5 mps 698 mmHg 86%
    16:00 -7°C° 0.3 mm 5 mps 699 mmHg 87%
    17:00 -7°C° 0.2 mm 5 mps 699 mmHg 88%
    18:00 -7°C° 0.2 mm 4 mps 700 mmHg 88%
    19:00 -7°C° 0.2 mm 4 mps 701 mmHg 89%
    20:00 -8°C° 0.1 mm 4 mps 701 mmHg 90%
    21:00 -7°C° 0.1 mm 3 mps 702 mmHg 91%
    22:00 -7°C° 0.1 mm 3 mps 702 mmHg 92%
    23:00 -7°C° 0 mm 2 mps 702 mmHg 92%
    Show more